Time,TemperatureF,DewpointF,PressureIn,WindDirection,WindDirectionDegrees,WindSpeedMPH,WindSpeedGustMPH,Humidity,HourlyPrecipIn,Conditions,Clouds,dailyrainin,SoftwareType,DateUTC
2013-02-27 04:04:00,30.4,27.5,29.65,NE,45,9.0,17.0,89,0.00,,,0.00,meteohub,2013-02-27 10:04:00,
2013-02-27 04:09:00,30.4,27.5,29.65,NW,315,14.0,17.0,89,0.00,,,0.00,meteohub,2013-02-27 10:09:00,
2013-02-27 04:14:00,30.4,27.5,29.65,North,0,13.0,19.0,89,0.00,,,0.00,meteohub,2013-02-27 10:14:00,
2013-02-27 04:19:00,30.4,27.5,29.65,West,270,8.0,19.0,89,0.00,,,0.00,meteohub,2013-02-27 10:19:00,
2013-02-27 04:24:00,30.4,27.5,29.65,North,0,10.0,21.0,89,0.00,,,0.00,meteohub,2013-02-27 10:24:00,
2013-02-27 04:29:00,30.2,27.3,29.65,NE,45,10.0,21.0,89,0.00,,,0.00,meteohub,2013-02-27 10:29:00,
2013-02-27 04:34:00,30.2,27.3,29.65,North,0,9.0,21.0,89,0.00,,,0.00,meteohub,2013-02-27 10:34:00,
2013-02-27 04:39:00,30.2,27.3,29.65,NNW,338,19.0,21.0,89,0.00,,,0.00,meteohub,2013-02-27 10:39:00,
2013-02-27 04:44:00,30.2,27.3,29.65,WSW,248,15.0,21.0,89,0.00,,,0.00,meteohub,2013-02-27 10:44:00,
2013-02-27 04:49:00,30.0,27.1,29.65,NNW,338,6.0,21.0,89,0.00,,,0.00,meteohub,2013-02-27 10:49:00,
2013-02-27 04:54:00,30.0,27.1,29.65,North,0,9.0,23.0,89,0.00,,,0.00,meteohub,2013-02-27 10:54:00,
2013-02-27 04:59:00,30.0,27.1,29.65,North,0,10.0,23.0,89,0.00,,,0.00,meteohub,2013-02-27 10:59:00,
2013-02-27 05:04:00,30.0,27.1,29.65,WNW,292,12.0,23.0,89,0.00,,,0.00,meteohub,2013-02-27 11:04:00,
2013-02-27 05:10:00,29.8,27.0,29.65,NNW,338,17.0,23.0,89,0.00,,,0.00,meteohub,2013-02-27 11:10:00,
2013-02-27 05:15:00,30.0,27.1,29.68,NW,315,15.0,18.0,89,0.00,,,0.00,meteohub,2013-02-27 11:15:00,
2013-02-27 05:20:00,30.0,27.1,29.68,NNE,22,19.0,20.0,89,0.00,,,0.00,meteohub,2013-02-27 11:20:00,
2013-02-27 05:25:00,29.8,27.0,29.68,NNE,22,7.0,20.0,89,0.00,,,0.00,meteohub,2013-02-27 11:25:00,
2013-02-27 05:30:00,30.0,27.1,29.68,NNW,338,10.0,20.0,89,0.00,,,0.00,meteohub,2013-02-27 11:30:00,
2013-02-27 05:35:00,30.0,27.0,29.68,North,0,18.0,21.0,88,0.00,,,0.00,meteohub,2013-02-27 11:35:00,
2013-02-27 05:40:00,30.0,27.0,29.68,NW,315,10.0,21.0,88,0.00,,,0.00,meteohub,2013-02-27 11:40:00,
2013-02-27 05:45:00,30.0,27.0,29.68,NNW,338,7.0,21.0,88,0.00,,,0.00,meteohub,2013-02-27 11:45:00,
2013-02-27 05:50:00,30.0,27.0,29.68,NNW,338,17.0,18.0,88,0.00,,,0.00,meteohub,2013-02-27 11:50:00,
2013-02-27 05:55:00,30.0,27.0,29.68,NNW,338,6.0,17.0,88,0.00,,,0.00,meteohub,2013-02-27 11:55:00,
2013-02-27 06:00:00,30.0,26.6,29.68,North,0,10.0,17.0,87,0.00,,,0.00,meteohub,2013-02-27 12:00:00,
2013-02-27 06:05:00,30.0,26.6,29.68,NW,315,8.0,17.0,87,0.00,,,0.00,meteohub,2013-02-27 12:05:00,
2013-02-27 06:10:00,30.0,26.6,29.68,NNW,338,9.0,17.0,87,0.00,,,0.00,meteohub,2013-02-27 12:10:00,
2013-02-27 06:15:00,30.0,26.6,29.68,NNW,338,8.0,17.0,87,0.00,,,0.00,meteohub,2013-02-27 12:15:00,
2013-02-27 06:20:00,30.0,26.4,29.68,NW,315,7.0,17.0,86,0.00,,,0.00,meteohub,2013-02-27 12:20:00,
2013-02-27 06:25:00,30.0,26.4,29.68,NNE,22,8.0,21.0,86,0.00,,,0.00,meteohub,2013-02-27 12:25:00,
2013-02-27 06:30:00,30.0,26.4,29.68,WNW,292,9.0,21.0,86,0.00,,,0.00,meteohub,2013-02-27 12:30:00,
2013-02-27 06:35:00,30.0,26.1,29.68,NNW,338,9.0,17.0,85,0.00,,,0.00,meteohub,2013-02-27 12:35:00,
2013-02-27 06:40:00,30.0,26.1,29.68,NW,315,16.0,17.0,85,0.00,,,0.00,meteohub,2013-02-27 12:40:00,
2013-02-27 06:45:00,30.0,26.1,29.68,NW,315,9.0,17.0,85,0.00,,,0.00,meteohub,2013-02-27 12:45:00,
2013-02-27 06:50:00,30.0,26.1,29.68,North,0,11.0,16.0,85,0.00,,,0.00,meteohub,2013-02-27 12:50:00,
2013-02-27 06:55:00,30.0,26.1,29.68,SW,225,14.0,16.0,85,0.00,,,0.00,meteohub,2013-02-27 12:55:00,
2013-02-27 07:00:00,30.0,26.1,29.70,NW,315,7.0,17.0,85,0.00,,,0.00,meteohub,2013-02-27 13:00:00,
2013-02-27 07:05:00,30.2,26.2,29.70,NW,315,13.0,17.0,85,0.00,,,0.00,meteohub,2013-02-27 13:05:00,
2013-02-27 07:10:00,30.2,26.2,29.70,NNW,338,7.0,17.0,85,0.00,,,0.00,meteohub,2013-02-27 13:10:00,
2013-02-27 07:15:00,30.4,26.1,29.70,NW,315,12.0,18.0,84,0.00,,,0.00,meteohub,2013-02-27 13:15:00,
2013-02-27 07:20:00,30.6,26.2,29.70,WNW,292,11.0,18.0,84,0.00,,,0.00,meteohub,2013-02-27 13:20:00,
2013-02-27 07:25:00,30.7,26.4,29.70,West,270,18.0,18.0,84,0.00,,,0.00,meteohub,2013-02-27 13:25:00,
2013-02-27 07:30:00,30.7,26.4,29.70,ENE,68,9.0,17.0,84,0.00,,,0.00,meteohub,2013-02-27 13:30:00,
2013-02-27 07:35:00,30.7,26.4,29.70,NW,315,3.0,18.0,84,0.00,,,0.00,meteohub,2013-02-27 13:35:00,
2013-02-27 07:40:00,30.7,26.4,29.70,West,270,14.0,18.0,84,0.00,,,0.00,meteohub,2013-02-27 13:40:00,
2013-02-27 07:45:00,30.7,26.4,29.70,ENE,68,10.0,18.0,84,0.00,,,0.00,meteohub,2013-02-27 13:45:00,
2013-02-27 07:50:00,30.9,26.6,29.70,NNW,338,7.0,18.0,84,0.00,,,0.00,meteohub,2013-02-27 13:50:00,
2013-02-27 07:55:00,30.9,26.6,29.70,NNW,338,9.0,18.0,84,0.00,,,0.00,meteohub,2013-02-27 13:55:00,
2013-02-27 08:00:00,30.9,26.6,29.70,North,0,6.0,17.0,84,0.00,,,0.00,meteohub,2013-02-27 14:00:00,
2013-02-27 08:05:00,31.1,26.8,29.70,North,0,13.0,17.0,84,0.00,,,0.00,meteohub,2013-02-27 14:05:00,
2013-02-27 08:10:00,31.1,26.8,29.70,NW,315,11.0,14.0,84,0.00,,,0.00,meteohub,2013-02-27 14:10:00,
2013-02-27 08:15:00,31.1,26.8,29.70,NNW,338,6.0,14.0,84,0.00,,,0.00,meteohub,2013-02-27 14:15:00,
2013-02-27 08:20:00,31.1,26.8,29.70,NNE,22,13.0,13.0,84,0.00,,,0.00,meteohub,2013-02-27 14:20:00,
2013-02-27 08:25:00,31.1,26.8,29.70,NW,315,9.0,15.0,84,0.00,,,0.00,meteohub,2013-02-27 14:25:00,
2013-02-27 08:30:00,31.1,26.8,29.70,North,0,12.0,17.0,84,0.00,,,0.00,meteohub,2013-02-27 14:30:00,
2013-02-27 08:35:00,31.1,26.8,29.70,NW,315,10.0,17.0,84,0.00,,,0.00,meteohub,2013-02-27 14:35:00,
2013-02-27 08:40:00,31.5,27.1,29.70,West,270,7.0,17.0,84,0.00,,,0.00,meteohub,2013-02-27 14:40:00,
2013-02-27 08:45:00,31.6,27.3,29.70,North,0,6.0,14.0,84,0.00,,,0.00,meteohub,2013-02-27 14:45:00,
2013-02-27 08:50:00,31.8,27.5,29.70,North,0,12.0,14.0,84,0.00,,,0.00,meteohub,2013-02-27 14:50:00,
2013-02-27 08:55:00,32.2,27.9,29.70,North,0,10.0,14.0,84,0.00,,,0.00,meteohub,2013-02-27 14:55:00,
2013-02-27 09:00:00,32.4,27.9,29.73,North,0,10.0,14.0,83,0.00,,,0.00,meteohub,2013-02-27 15:00:00,
2013-02-27 09:05:00,32.5,27.7,29.73,North,0,13.0,14.0,82,0.00,,,0.00,meteohub,2013-02-27 15:05:00,
2013-02-27 09:10:00,32.5,27.7,29.73,NE,45,20.0,20.0,82,0.00,,,0.00,meteohub,2013-02-27 15:10:00,
2013-02-27 09:15:00,32.7,27.5,29.70,NNW,338,21.0,21.0,81,0.00,,,0.00,meteohub,2013-02-27 15:15:00,
2013-02-27 09:20:00,32.7,27.3,29.70,NNW,338,5.0,20.0,80,0.00,,,0.00,meteohub,2013-02-27 15:20:00,
2013-02-27 09:25:00,32.7,27.0,29.70,NW,315,10.0,21.0,79,0.00,,,0.00,meteohub,2013-02-27 15:25:00,
2013-02-27 09:30:00,32.7,27.0,29.70,NW,315,11.0,21.0,79,0.00,,,0.00,meteohub,2013-02-27 15:30:00,
2013-02-27 09:35:00,32.7,26.6,29.70,North,0,14.0,21.0,78,0.00,,,0.00,meteohub,2013-02-27 15:35:00,
2013-02-27 09:40:00,32.9,26.8,29.70,North,0,6.0,15.0,78,0.00,,,0.00,meteohub,2013-02-27 15:40:00,
2013-02-27 09:45:00,32.9,26.4,29.70,NW,315,5.0,17.0,77,0.00,,,0.00,meteohub,2013-02-27 15:45:00,
2013-02-27 09:50:00,33.1,26.6,29.70,NNW,338,16.0,17.0,77,0.00,,,0.00,meteohub,2013-02-27 15:50:00,
2013-02-27 09:55:00,33.1,26.6,29.70,NNE,22,9.0,16.0,77,0.00,,,0.00,meteohub,2013-02-27 15:55:00,
2013-02-27 10:01:00,33.3,26.8,29.70,NE,45,6.0,16.0,77,0.00,,,0.00,meteohub,2013-02-27 16:01:00,
2013-02-27 10:06:00,33.3,26.8,29.70,NNW,338,12.0,16.0,77,0.00,,,0.00,meteohub,2013-02-27 16:06:00,
2013-02-27 10:11:00,33.6,27.1,29.70,NNW,338,10.0,18.0,77,0.00,,,0.00,meteohub,2013-02-27 16:11:00,
2013-02-27 10:15:00,33.8,27.1,29.70,NW,315,16.0,18.0,76,0.00,,,0.00,meteohub,2013-02-27 16:15:00,
2013-02-27 10:20:00,33.8,27.1,29.70,North,0,10.0,16.0,76,0.00,,,0.00,meteohub,2013-02-27 16:20:00,
2013-02-27 10:26:00,33.8,27.1,29.70,NNW,338,6.0,16.0,76,0.00,,,0.00,meteohub,2013-02-27 16:26:00,
2013-02-27 10:31:00,34.0,27.3,29.70,NNW,338,14.0,17.0,76,0.00,,,0.00,meteohub,2013-02-27 16:31:00,
2013-02-27 10:36:00,34.2,27.1,29.70,North,0,10.0,17.0,75,0.00,,,0.00,meteohub,2013-02-27 16:36:00,
2013-02-27 10:41:00,34.7,27.9,29.70,North,0,5.0,17.0,76,0.00,,,0.00,meteohub,2013-02-27 16:41:00,
2013-02-27 10:46:00,35.1,28.2,29.70,NNW,338,6.0,17.0,76,0.00,,,0.00,meteohub,2013-02-27 16:46:00,
2013-02-27 10:51:00,35.2,28.2,29.70,North,0,10.0,17.0,75,0.00,,,0.00,meteohub,2013-02-27 16:51:00,
2013-02-27 10:56:00,35.2,27.9,29.70,North,0,13.0,17.0,74,0.00,,,0.00,meteohub,2013-02-27 16:56:00,
2013-02-27 11:01:00,35.2,27.5,29.70,NW,315,4.0,17.0,73,0.00,,,0.00,meteohub,2013-02-27 17:01:00,
2013-02-27 11:06:00,35.1,27.0,29.70,NW,315,4.0,18.0,72,0.00,,,0.00,meteohub,2013-02-27 17:06:00,
2013-02-27 11:11:00,35.2,27.5,29.70,NW,315,11.0,20.0,73,0.00,,,0.00,meteohub,2013-02-27 17:11:00,
2013-02-27 11:16:00,35.6,27.9,29.68,North,0,12.0,20.0,73,0.00,,,0.00,meteohub,2013-02-27 17:16:00,
2013-02-27 11:21:00,36.0,27.9,29.68,NNW,338,8.0,14.0,72,0.00,,,0.00,meteohub,2013-02-27 17:21:00,
2013-02-27 11:26:00,36.0,27.5,29.68,NNW,338,13.0,14.0,71,0.00,,,0.00,meteohub,2013-02-27 17:26:00,
2013-02-27 11:31:00,35.8,27.3,29.70,North,0,12.0,14.0,71,0.00,,,0.00,meteohub,2013-02-27 17:31:00,
2013-02-27 11:36:00,35.6,27.1,29.70,West,270,7.0,18.0,71,0.00,,,0.00,meteohub,2013-02-27 17:36:00,
2013-02-27 11:41:00,35.1,27.0,29.70,WNW,292,10.0,18.0,72,0.00,,,0.00,meteohub,2013-02-27 17:41:00,
2013-02-27 11:46:00,35.1,27.3,29.68,NNW,338,10.0,18.0,73,0.00,,,0.00,meteohub,2013-02-27 17:46:00,
2013-02-27 11:51:00,34.9,27.5,29.68,North,0,6.0,10.0,74,0.00,,,0.00,meteohub,2013-02-27 17:51:00,
2013-02-27 11:56:00,35.1,27.7,29.68,North,0,10.0,10.0,74,0.00,,,0.00,meteohub,2013-02-27 17:56:00,
2013-02-27 12:01:00,35.1,27.7,29.70,WSW,248,6.0,12.0,74,0.00,,,0.00,meteohub,2013-02-27 18:01:00,
2013-02-27 12:06:00,35.4,28.0,29.70,NNW,338,6.0,12.0,74,0.00,,,0.00,meteohub,2013-02-27 18:06:00,
2013-02-27 12:11:00,35.6,27.9,29.70,North,0,6.0,12.0,73,0.00,,,0.00,meteohub,2013-02-27 18:11:00,
2013-02-27 12:16:00,35.4,27.7,29.70,WSW,248,7.0,12.0,73,0.00,,,0.00,meteohub,2013-02-27 18:16:00,
2013-02-27 12:21:00,35.6,27.9,29.70,WNW,292,7.0,12.0,73,0.00,,,0.00,meteohub,2013-02-27 18:21:00,
2013-02-27 12:26:00,35.8,28.0,29.70,NNW,338,4.0,14.0,73,0.00,,,0.00,meteohub,2013-02-27 18:26:00,
2013-02-27 12:31:00,36.0,28.2,29.70,West,270,9.0,15.0,73,0.00,,,0.00,meteohub,2013-02-27 18:31:00,
2013-02-27 12:36:00,35.8,27.7,29.70,NNW,338,4.0,15.0,72,0.00,,,0.00,meteohub,2013-02-27 18:36:00,
2013-02-27 12:41:00,35.8,27.7,29.70,NNW,338,6.0,15.0,72,0.00,,,0.00,meteohub,2013-02-27 18:41:00,
2013-02-27 12:46:00,36.0,27.9,29.70,North,0,7.0,17.0,72,0.00,,,0.00,meteohub,2013-02-27 18:46:00,
2013-02-27 12:51:00,35.8,27.3,29.70,NNW,338,12.0,17.0,71,0.00,,,0.00,meteohub,2013-02-27 18:51:00,
2013-02-27 12:56:00,35.4,27.0,29.70,WNW,292,11.0,17.0,71,0.00,,,0.00,meteohub,2013-02-27 18:56:00,
2013-02-27 13:01:00,35.2,27.1,29.70,WNW,292,17.0,17.0,72,0.00,,,0.00,meteohub,2013-02-27 19:01:00,
2013-02-27 13:06:00,34.9,26.8,29.70,WSW,248,11.0,17.0,72,0.00,,,0.00,meteohub,2013-02-27 19:06:00,
2013-02-27 13:11:00,34.9,27.1,29.70,West,270,13.0,17.0,73,0.00,,,0.00,meteohub,2013-02-27 19:11:00,
2013-02-27 13:16:00,35.1,27.7,29.70,SW,225,6.0,17.0,74,0.00,,,0.00,meteohub,2013-02-27 19:16:00,
2013-02-27 13:21:00,35.1,27.7,29.70,North,0,16.0,17.0,74,0.00,,,0.00,meteohub,2013-02-27 19:21:00,
2013-02-27 13:26:00,35.2,27.9,29.70,NW,315,8.0,16.0,74,0.00,,,0.00,meteohub,2013-02-27 19:26:00,
2013-02-27 13:31:00,35.4,28.0,29.70,WSW,248,7.0,16.0,74,0.00,,,0.00,meteohub,2013-02-27 19:31:00,
2013-02-27 13:36:00,35.4,27.7,29.70,NNW,338,5.0,20.0,73,0.00,,,0.00,meteohub,2013-02-27 19:36:00,
2013-02-27 13:41:00,35.2,26.8,29.70,NNW,338,18.0,20.0,71,0.00,,,0.00,meteohub,2013-02-27 19:41:00,
2013-02-27 13:46:00,35.4,27.0,29.70,North,0,9.0,20.0,71,0.00,,,0.00,meteohub,2013-02-27 19:46:00,
2013-02-27 13:51:00,35.6,27.1,29.70,NW,315,9.0,18.0,71,0.00,,,0.00,meteohub,2013-02-27 19:51:00,
2013-02-27 13:56:00,35.4,26.6,29.70,SW,225,6.0,18.0,70,0.00,,,0.00,meteohub,2013-02-27 19:56:00,
2013-02-27 14:01:00,35.1,26.6,29.70,NW,315,10.0,14.0,71,0.00,,,0.00,meteohub,2013-02-27 20:01:00,
2013-02-27 14:06:00,35.1,26.6,29.70,South,180,5.0,14.0,71,0.00,,,0.00,meteohub,2013-02-27 20:06:00,
2013-02-27 14:12:00,35.1,26.6,29.70,NNW,338,20.0,20.0,71,0.00,,,0.00,meteohub,2013-02-27 20:12:00,
2013-02-27 14:17:00,35.1,27.0,29.68,NE,45,4.0,20.0,72,0.00,,,0.00,meteohub,2013-02-27 20:17:00,
2013-02-27 14:22:00,35.2,27.1,29.68,North,0,17.0,20.0,72,0.00,,,0.00,meteohub,2013-02-27 20:22:00,
2013-02-27 14:27:00,35.4,27.7,29.68,WSW,248,9.0,20.0,73,0.00,,,0.00,meteohub,2013-02-27 20:27:00,
2013-02-27 14:32:00,35.2,27.5,29.70,WSW,248,6.0,18.0,73,0.00,,,0.00,meteohub,2013-02-27 20:32:00,
2013-02-27 14:37:00,35.2,27.5,29.70,North,0,7.0,18.0,73,0.00,,,0.00,meteohub,2013-02-27 20:37:00,
2013-02-27 14:42:00,35.2,27.5,29.70,NNE,22,13.0,18.0,73,0.00,,,0.00,meteohub,2013-02-27 20:42:00,
2013-02-27 14:47:00,35.1,27.3,29.70,NNW,338,18.0,20.0,73,0.00,,,0.00,meteohub,2013-02-27 20:47:00,
2013-02-27 14:52:00,35.4,27.7,29.70,NW,315,13.0,22.0,73,0.00,,,0.00,meteohub,2013-02-27 20:52:00,
2013-02-27 14:57:00,35.4,27.7,29.70,North,0,13.0,22.0,73,0.00,,,0.00,meteohub,2013-02-27 20:57:00,
2013-02-27 15:02:00,35.4,28.0,29.70,North,0,10.0,22.0,74,0.00,,,0.00,meteohub,2013-02-27 21:02:00,
2013-02-27 15:07:00,35.4,28.2,29.70,NNE,22,13.0,16.0,75,0.00,,,0.00,meteohub,2013-02-27 21:07:00,
2013-02-27 15:12:00,35.6,28.4,29.70,NNW,338,5.0,15.0,75,0.00,,,0.00,meteohub,2013-02-27 21:12:00,
2013-02-27 15:17:00,35.8,28.6,29.73,NW,315,6.0,21.0,75,0.00,,,0.00,meteohub,2013-02-27 21:17:00,
2013-02-27 15:22:00,35.6,28.4,29.73,North,0,10.0,21.0,75,0.00,,,0.00,meteohub,2013-02-27 21:22:00,
2013-02-27 15:27:00,35.4,28.2,29.73,East,90,12.0,19.0,75,0.00,,,0.00,meteohub,2013-02-27 21:27:00,
2013-02-27 15:32:00,35.2,28.2,29.73,WSW,248,11.0,19.0,75,0.00,,,0.00,meteohub,2013-02-27 21:32:00,
2013-02-27 15:37:00,35.1,28.0,29.73,NNW,338,9.0,17.0,75,0.00,,,0.00,meteohub,2013-02-27 21:37:00,
2013-02-27 15:42:00,35.1,28.0,29.73,NNW,338,7.0,13.0,75,0.00,,,0.00,meteohub,2013-02-27 21:42:00,
2013-02-27 15:47:00,34.9,27.5,29.76,NNW,338,10.0,16.0,74,0.00,,,0.00,meteohub,2013-02-27 21:47:00,
2013-02-27 15:52:00,34.9,27.5,29.76,WNW,292,5.0,18.0,74,0.00,,,0.00,meteohub,2013-02-27 21:52:00,
2013-02-27 15:57:00,34.7,27.0,29.76,North,0,7.0,18.0,73,0.00,,,0.00,meteohub,2013-02-27 21:57:00,
2013-02-27 16:02:00,34.5,26.8,29.76,West,270,11.0,18.0,73,0.00,,,0.00,meteohub,2013-02-27 22:02:00,
2013-02-27 16:07:00,34.5,26.8,29.76,NW,315,7.0,15.0,73,0.00,,,0.00,meteohub,2013-02-27 22:07:00,
2013-02-27 16:12:00,34.3,26.6,29.76,SSW,202,6.0,14.0,73,0.00,,,0.00,meteohub,2013-02-27 22:12:00,
2013-02-27 16:17:00,34.3,27.0,29.76,North,0,9.0,12.0,74,0.00,,,0.00,meteohub,2013-02-27 22:17:00,
2013-02-27 16:22:00,34.2,26.8,29.76,West,270,6.0,17.0,74,0.00,,,0.00,meteohub,2013-02-27 22:22:00,
2013-02-27 16:27:00,34.2,26.8,29.76,NNW,338,5.0,17.0,74,0.00,,,0.00,meteohub,2013-02-27 22:27:00,
2013-02-27 16:32:00,34.2,27.1,29.76,NNW,338,9.0,17.0,75,0.00,,,0.00,meteohub,2013-02-27 22:32:00,
2013-02-27 16:37:00,34.2,27.1,29.76,WNW,292,13.0,17.0,75,0.00,,,0.00,meteohub,2013-02-27 22:37:00,
2013-02-27 16:42:00,34.0,27.0,29.76,North,0,11.0,17.0,75,0.00,,,0.00,meteohub,2013-02-27 22:42:00,
2013-02-27 16:47:00,34.0,27.0,29.76,North,0,9.0,14.0,75,0.00,,,0.00,meteohub,2013-02-27 22:47:00,
2013-02-27 16:52:00,34.0,27.0,29.76,North,0,6.0,18.0,75,0.00,,,0.00,meteohub,2013-02-27 22:52:00,
2013-02-27 16:57:00,34.0,27.0,29.76,NNW,338,12.0,18.0,75,0.00,,,0.00,meteohub,2013-02-27 22:57:00,
2013-02-27 17:02:00,34.0,27.3,29.76,NW,315,7.0,18.0,76,0.00,,,0.00,meteohub,2013-02-27 23:02:00,
2013-02-27 17:07:00,34.0,27.5,29.76,NW,315,10.0,16.0,77,0.00,,,0.00,meteohub,2013-02-27 23:07:00,
2013-02-27 17:12:00,33.8,27.3,29.76,NW,315,9.0,16.0,77,0.00,,,0.00,meteohub,2013-02-27 23:12:00,
2013-02-27 17:17:00,33.8,27.7,29.73,SSW,202,5.0,14.0,78,0.00,,,0.00,meteohub,2013-02-27 23:17:00,
2013-02-27 17:22:00,33.6,27.9,29.73,North,0,6.0,17.0,79,0.00,,,0.00,meteohub,2013-02-27 23:22:00,
2013-02-27 17:27:00,33.4,28.2,29.73,WNW,292,6.0,17.0,81,0.00,,,0.00,meteohub,2013-02-27 23:27:00,
2013-02-27 17:32:00,33.3,28.4,29.76,NW,315,4.0,17.0,82,0.00,,,0.00,meteohub,2013-02-27 23:32:00,
2013-02-27 17:37:00,33.3,28.8,29.76,North,0,4.0,11.0,83,0.00,,,0.00,meteohub,2013-02-27 23:37:00,
2013-02-27 17:42:00,33.3,28.9,29.76,WSW,248,6.0,13.0,84,0.00,,,0.00,meteohub,2013-02-27 23:42:00,
2013-02-27 17:47:00,33.1,29.1,29.79,WNW,292,5.0,13.0,85,0.00,,,0.00,meteohub,2013-02-27 23:47:00,
2013-02-27 17:52:00,33.1,29.3,29.79,WNW,292,5.0,13.0,86,0.00,,,0.00,meteohub,2013-02-27 23:52:00,
2013-02-27 17:57:00,33.1,29.3,29.79,SW,225,4.0,12.0,86,0.00,,,0.00,meteohub,2013-02-27 23:57:00,
2013-02-27 18:02:00,32.9,29.5,29.79,South,180,4.0,12.0,87,0.00,,,0.00,meteohub,2013-02-28 00:02:00,
2013-02-27 18:07:00,32.9,29.7,29.79,WNW,292,4.0,12.0,88,0.00,,,0.00,meteohub,2013-02-28 00:07:00,
2013-02-27 18:12:00,32.9,29.7,29.79,West,270,9.0,13.0,88,0.00,,,0.00,meteohub,2013-02-28 00:12:00,
2013-02-27 18:17:00,33.1,30.2,29.79,WSW,248,8.0,13.0,89,0.00,,,0.00,meteohub,2013-02-28 00:17:00,
2013-02-27 18:22:00,33.1,30.2,29.79,NNE,22,6.0,13.0,89,0.00,,,0.00,meteohub,2013-02-28 00:22:00,
2013-02-27 18:27:00,33.1,30.2,29.79,WNW,292,6.0,10.0,89,0.00,,,0.00,meteohub,2013-02-28 00:27:00,
2013-02-27 18:32:00,33.1,30.2,29.79,West,270,6.0,10.0,89,0.00,,,0.00,meteohub,2013-02-28 00:32:00,
2013-02-27 18:37:00,33.1,30.2,29.79,WSW,248,7.0,14.0,89,0.00,,,0.00,meteohub,2013-02-28 00:37:00,
2013-02-27 18:41:00,33.1,30.6,29.79,West,270,11.0,14.0,90,0.00,,,0.00,meteohub,2013-02-28 00:41:00,
2013-02-27 18:47:00,33.1,30.6,29.79,West,270,9.0,14.0,90,0.00,,,0.00,meteohub,2013-02-28 00:47:00,
2013-02-27 18:51:00,33.1,30.6,29.79,NNW,338,8.0,13.0,90,0.00,,,0.00,meteohub,2013-02-28 00:51:00,
2013-02-27 18:57:00,33.1,30.6,29.79,NNW,338,6.0,13.0,90,0.00,,,0.00,meteohub,2013-02-28 00:57:00,
2013-02-27 19:02:00,33.1,30.6,29.79,West,270,4.0,13.0,90,0.00,,,0.00,meteohub,2013-02-28 01:02:00,
2013-02-27 19:07:00,33.1,30.7,29.79,WSW,248,10.0,12.0,91,0.00,,,0.00,meteohub,2013-02-28 01:07:00,
2013-02-27 19:12:00,33.1,30.7,29.79,WSW,248,11.0,12.0,91,0.00,,,0.00,meteohub,2013-02-28 01:12:00,
2013-02-27 19:17:00,33.1,30.7,29.82,NW,315,9.0,11.0,91,0.00,,,0.00,meteohub,2013-02-28 01:17:00,
2013-02-27 19:22:00,33.1,30.7,29.82,SSW,202,10.0,11.0,91,0.00,,,0.00,meteohub,2013-02-28 01:22:00,
2013-02-27 19:27:00,33.1,30.7,29.82,West,270,9.0,11.0,91,0.00,,,0.00,meteohub,2013-02-28 01:27:00,
2013-02-27 19:32:00,33.1,30.7,29.79,WNW,292,6.0,11.0,91,0.00,,,0.00,meteohub,2013-02-28 01:32:00,
2013-02-27 19:37:00,33.1,30.7,29.79,WSW,248,6.0,11.0,91,0.00,,,0.00,meteohub,2013-02-28 01:37:00,
2013-02-27 19:42:00,33.1,30.7,29.79,West,270,6.0,13.0,91,0.00,,,0.00,meteohub,2013-02-28 01:42:00,
2013-02-27 19:47:00,33.1,30.7,29.82,West,270,6.0,13.0,91,0.00,,,0.00,meteohub,2013-02-28 01:47:00,
2013-02-27 19:52:00,32.9,30.6,29.82,West,270,6.0,13.0,91,0.00,,,0.00,meteohub,2013-02-28 01:52:00,
2013-02-27 19:57:00,32.9,30.6,29.82,West,270,10.0,12.0,91,0.00,,,0.00,meteohub,2013-02-28 01:57:00,
2013-02-27 20:02:00,32.9,30.6,29.82,WSW,248,7.0,10.0,91,0.00,,,0.00,meteohub,2013-02-28 02:02:00,
2013-02-27 20:07:00,32.9,30.6,29.82,SSW,202,6.0,10.0,91,0.00,,,0.00,meteohub,2013-02-28 02:07:00,
2013-02-27 20:12:00,32.9,30.6,29.82,West,270,12.0,12.0,91,0.00,,,0.00,meteohub,2013-02-28 02:12:00,
2013-02-27 20:17:00,32.9,30.9,29.82,WSW,248,7.0,12.0,92,0.00,,,0.00,meteohub,2013-02-28 02:17:00,
2013-02-27 20:22:00,32.9,30.9,29.82,NW,315,6.0,12.0,92,0.00,,,0.00,meteohub,2013-02-28 02:22:00,
2013-02-27 20:27:00,32.9,30.9,29.82,NW,315,7.0,12.0,92,0.00,,,0.00,meteohub,2013-02-28 02:27:00,
2013-02-27 20:32:00,32.9,30.9,29.82,NW,315,9.0,11.0,92,0.00,,,0.00,meteohub,2013-02-28 02:32:00,
2013-02-27 20:37:00,32.9,30.9,29.82,NNW,338,10.0,11.0,92,0.00,,,0.00,meteohub,2013-02-28 02:37:00,
2013-02-27 20:42:00,33.1,31.1,29.82,SW,225,6.0,12.0,92,0.00,,,0.00,meteohub,2013-02-28 02:42:00,
2013-02-27 20:47:00,33.1,31.1,29.82,West,270,12.0,12.0,92,0.00,,,0.00,meteohub,2013-02-28 02:47:00,
2013-02-27 20:52:00,32.9,30.6,29.82,NW,315,6.0,12.0,91,0.00,,,0.00,meteohub,2013-02-28 02:52:00,
2013-02-27 20:56:00,32.9,30.6,29.82,North,0,6.0,12.0,91,0.00,,,0.00,meteohub,2013-02-28 02:56:00,
2013-02-27 21:02:00,32.9,30.6,29.82,NW,315,13.0,13.0,91,0.00,,,0.00,meteohub,2013-02-28 03:02:00,
2013-02-27 21:07:00,32.9,30.6,29.82,WSW,248,4.0,13.0,91,0.00,,,0.00,meteohub,2013-02-28 03:07:00,
2013-02-27 21:11:00,32.9,30.9,29.82,WNW,292,5.0,13.0,92,0.00,,,0.00,meteohub,2013-02-28 03:11:00,
2013-02-27 21:12:00,32.9,30.9,29.82,WNW,292,5.0,13.0,92,0.00,,,0.00,meteohub,2013-02-28 03:12:00,
2013-02-27 21:17:00,32.9,30.9,29.79,North,0,5.0,13.0,92,0.00,,,0.00,meteohub,2013-02-28 03:17:00,
2013-02-27 21:22:00,32.9,30.9,29.79,WSW,248,9.0,12.0,92,0.00,,,0.00,meteohub,2013-02-28 03:22:00,
2013-02-27 21:27:00,32.9,30.9,29.79,WSW,248,7.0,12.0,92,0.00,,,0.00,meteohub,2013-02-28 03:27:00,
2013-02-27 21:32:00,32.9,30.9,29.79,NW,315,6.0,14.0,92,0.00,,,0.00,meteohub,2013-02-28 03:32:00,
2013-02-27 21:37:00,32.9,30.9,29.79,West,270,6.0,14.0,92,0.00,,,0.00,meteohub,2013-02-28 03:37:00,
2013-02-27 21:42:00,32.9,30.9,29.79,West,270,10.0,12.0,92,0.00,,,0.00,meteohub,2013-02-28 03:42:00,
2013-02-27 21:47:00,32.9,31.1,29.79,West,270,6.0,10.0,93,0.00,,,0.00,meteohub,2013-02-28 03:47:00,
2013-02-27 21:52:00,32.9,31.1,29.79,SSE,158,6.0,13.0,93,0.00,,,0.00,meteohub,2013-02-28 03:52:00,
2013-02-27 21:57:00,32.9,31.1,29.79,WSW,248,6.0,13.0,93,0.00,,,0.00,meteohub,2013-02-28 03:57:00,
2013-02-27 22:02:00,32.9,31.1,29.82,WSW,248,10.0,11.0,93,0.00,,,0.00,meteohub,2013-02-28 04:02:00,
2013-02-27 22:07:00,32.9,31.1,29.82,SSW,202,9.0,10.0,93,0.00,,,0.00,meteohub,2013-02-28 04:07:00,
2013-02-27 22:12:00,32.9,30.9,29.82,North,0,6.0,10.0,92,0.00,,,0.00,meteohub,2013-02-28 04:12:00,
2013-02-27 22:17:00,32.9,30.9,29.82,West,270,6.0,10.0,92,0.00,,,0.00,meteohub,2013-02-28 04:17:00,
2013-02-27 22:22:00,32.9,30.9,29.82,NW,315,9.0,10.0,92,0.00,,,0.00,meteohub,2013-02-28 04:22:00,
2013-02-27 22:27:00,32.9,30.9,29.82,North,0,9.0,10.0,92,0.00,,,0.00,meteohub,2013-02-28 04:27:00,
2013-02-27 22:32:00,32.9,30.9,29.82,WSW,248,4.0,10.0,92,0.00,,,0.00,meteohub,2013-02-28 04:32:00,
2013-02-27 22:37:00,32.9,30.9,29.82,North,0,12.0,12.0,92,0.00,,,0.00,meteohub,2013-02-28 04:37:00,
2013-02-27 22:42:00,32.9,30.9,29.82,West,270,10.0,12.0,92,0.00,,,0.00,meteohub,2013-02-28 04:42:00,
2013-02-27 22:47:00,32.9,30.6,29.82,North,0,7.0,12.0,91,0.00,,,0.00,meteohub,2013-02-28 04:47:00,
2013-02-27 22:52:00,32.9,30.6,29.82,NNW,338,4.0,12.0,91,0.00,,,0.00,meteohub,2013-02-28 04:52:00,
2013-02-27 22:57:00,32.9,30.6,29.82,West,270,4.0,14.0,91,0.00,,,0.00,meteohub,2013-02-28 04:57:00,
2013-02-27 23:00:00,32.9,30.6,29.82,WSW,248,8.0,14.0,91,0.00,,,0.00,meteohub,2013-02-28 05:00:00,
2013-02-27 23:05:00,32.9,30.6,29.82,NNW,338,10.0,14.0,91,0.00,,,0.00,meteohub,2013-02-28 05:05:00,
2013-02-27 23:10:00,32.7,30.2,29.82,North,0,9.0,12.0,90,0.00,,,0.00,meteohub,2013-02-28 05:10:00,
2013-02-27 23:15:00,32.7,30.2,29.82,NNW,338,6.0,12.0,90,0.00,,,0.00,meteohub,2013-02-28 05:15:00,
2013-02-27 23:20:00,32.7,30.2,29.82,NNW,338,5.0,11.0,90,0.00,,,0.00,meteohub,2013-02-28 05:20:00,
2013-02-27 23:25:00,32.9,30.4,29.82,NNW,338,9.0,10.0,90,0.00,,,0.00,meteohub,2013-02-28 05:25:00,
2013-02-27 23:30:00,32.9,30.4,29.82,WNW,292,7.0,12.0,90,0.00,,,0.00,meteohub,2013-02-28 05:30:00,
2013-02-27 23:35:00,32.9,30.4,29.82,ENE,68,6.0,13.0,90,0.00,,,0.00,meteohub,2013-02-28 05:35:00,
2013-02-27 23:40:00,32.9,30.0,29.82,NW,315,10.0,13.0,89,0.00,,,0.00,meteohub,2013-02-28 05:40:00,
2013-02-27 23:45:00,32.9,30.0,29.79,North,0,10.0,12.0,89,0.00,,,0.00,meteohub,2013-02-28 05:45:00,
2013-02-27 23:51:00,33.1,30.2,29.79,NE,45,8.0,12.0,89,0.00,,,0.00,meteohub,2013-02-28 05:51:00,
2013-02-27 23:56:00,33.1,30.2,29.79,NW,315,6.0,10.0,89,0.00,,,0.00,meteohub,2013-02-28 05:56:00,